Location: Nairn
(57.5833°N, 3.8667°W)
Time: 03:52:06
(UTC+00:00)

UNK - Pass Details

Date: 15 December 2021
Orbit: 666 x 686 km, 98.2° (Epoch: 22 January)

Event Time Altitude Azimuth Distance (km) Brightness Sun altitude
Exits shadow 16:30:52 - 13° (NNE) 3,086 6.7 -7.2°
Rises 16:31:00 0° 12° (NNE) 3,029 6.7 -7.3°
Reaches altitude 10° 16:33:24 10° 4° (N) 2,109 6.0 -7.5°
Maximum altitude 16:37:30 33° 301° (WNW) 1,123 5.2 -8.0°
Drops below altitude 10° 16:41:35 10° 237° (WSW) 2,093 8.0 -8.5°
Sets 16:43:58 0° 228° (SW) 3,003 9.1 -8.7°
